Location: Le Rocchette
(44.3500°N, 7.8333°E)
Time: 16:59:22
(UTC+00:00)

Cosmos 1933 - Pass Details

Date: 17 November 2019
Orbit: 546 x 565 km, 82.5° (Epoch: 05 December)

Event Time Altitude Azimuth Distance (km) Brightness Sun altitude
Rises 04:55:24 0° 356° (N) 2,733 6.7 -16.3°
Reaches altitude 10° 04:57:38 10° 1° (N) 1,832 5.9 -15.9°
Maximum altitude 05:01:34 52° 79° (ENE) 686 4.1 -15.2°
Drops below altitude 10° 05:05:28 10° 156° (SSE) 1,812 6.5 -14.5°
Sets 05:07:39 0° 161° (SSE) 2,700 7.3 -14.1°
